KB3FCJ-2 Weather Reports


time (UTC)temp
F
wind
direction
speed
knots
gust
knots
rain 1hr
in
rain 24hr
in
rain mn
in
humidity
%
barometer
mb
20260506231258 66 0 0.0 1.7 0.00 0.08 0.09 85 639.2
20260506230301 66 0 0.0 2.6 0.00 0.08 0.09 85 639.2
20260506225258 66 0 0.0 8.7 0.00 0.08 0.09 85 639.2
20260506224259 66 205 0.9 5.2 0.00 0.08 0.09 85 639.2
20260506222852 67 0 0.0 7.0 0.00 0.08 0.09 84 639.2
20260506221851 67 0 0.0 6.1 0.00 0.08 0.09 83 639.2
20260506220852 67 0 0.0 4.3 0.00 0.08 0.09 83 639.2
20260506215851 68 0 0.0 2.6 0.00 0.08 0.09 83 639.2
20260506214341 68 0 0.0 1.7 0.00 0.08 0.09 84 639.2
20260506213340 68 0 0.0 4.3 0.00 0.08 0.09 83 639.2
20260506212341 68 218 0.9 5.2 0.00 0.08 0.09 84 639.2
20260506211340 67 0 0.0 2.6 0.00 0.08 0.09 83 639.2
20260506210341 67 0 0.0 7.8 0.00 0.08 0.09 84 639.2
20260506205341 67 217 5.2 10.4 0.00 0.08 0.09 83 639.2
20260506204340 67 212 4.3 9.6 0.00 0.08 0.09 83 639.2
20260506203341 67 194 0.9 7.8 0.00 0.08 0.09 85 639.2
20260506201941 66 210 3.5 11.3 0.00 0.08 0.09 85 639.2
20260506200940 66 216 4.3 8.7 0.00 0.08 0.09 85 639.2
20260506195940 66 0 0.0 8.7 0.00 0.08 0.09 86 639.2
20260506194939 66 211 5.2 12.2 0.00 0.08 0.09 86 639.2
20260506193535 66 213 3.5 8.7 0.00 0.08 0.09 87 639.2
20260506192534 65 256 0.9 7.8 0.00 0.08 0.09 89 639.2
20260506191535 63 206 3.5 7.8 0.00 0.08 0.09 90 639.2
20260506190535 63 222 2.6 7.0 0.00 0.08 0.09 91 621.6
20260506185140 62 204 0.9 5.2 0.00 0.08 0.09 91 826.3
20260506184140 62 192 2.6 8.7 0.00 0.08 0.09 91 826.3
20260506183140 62 217 1.7 7.0 0.00 0.08 0.09 92 826.3
20260506182140 62 223 2.6 9.6 0.00 0.08 0.09 92 826.3
20260506180727 61 215 2.6 7.8 0.00 0.08 0.09 93 826.3
20260506175727 61 161 2.6 5.2 0.00 0.08 0.09 93 826.3
20260506174727 61 200 3.5 8.7 0.00 0.08 0.09 93 826.3
20260506173727 61 221 0.9 9.6 0.00 0.08 0.09 94 826.3
20260506172312 61 0 0.0 7.0 0.00 0.08 0.09 94 826.3
20260506171312 61 0 0.0 4.3 0.00 0.08 0.09 94 826.3
20260506170312 61 209 1.7 7.0 0.00 0.08 0.09 94 826.3
20260506165312 61 187 3.5 6.1 0.00 0.08 0.09 94 826.3
20260506163906 61 0 0.0 6.1 0.01 0.08 0.09 95 826.3
20260506162905 61 189 2.6 9.6 0.02 0.08 0.09 95 826.3
20260506161905 61 147 1.7 5.2 0.02 0.08 0.09 95 826.3
20260506160905 61 0 0.0 0.9 0.03 0.08 0.09 94 826.3
20260506155512 60 0 0.0 5.2 0.04 0.08 0.08 94 826.3
20260506154512 60 0 0.0 0.9 0.04 0.07 0.07 94 826.3
20260506153512 61 0 0.0 0.9 0.04 0.07 0.07 94 826.3
20260506152513 61 0 0.0 1.7 0.04 0.06 0.06 93 826.3
20260506151345 60 0 0.0 5.2 0.04 0.05 0.05 92 826.3
20260506150345 61 0 0.0 4.3 0.04 0.05 0.05 91 826.3
20260506145345 61 0 0.0 5.2 0.04 0.04 0.04 91 826.3
20260506144345 61 0 0.0 4.3 0.03 0.03 0.03 90 826.3
20260506143346 61 0 0.0 6.1 0.02 0.02 0.02 89 826.3
20260506142345 62 198 0.9 6.1 0.02 0.02 0.02 89 826.3
20260506141345 62 0 0.0 6.1 0.01 0.01 0.01 87 826.3
20260506140345 63 0 0.0 5.2 0.01 0.01 0.01 85 826.3
20260506134942 64 197 1.7 9.6 0.00 0.00 0.00 81 826.3
20260506133942 64 211 1.7 5.2 0.00 0.00 0.00 81 826.3
20260506132942 64 197 1.7 7.8 0.00 0.00 0.00 81 1096.4
20260506131942 64 203 0.9 7.0 0.00 0.00 0.00 82 1096.4
20260506130535 64 210 1.7 5.2 0.00 0.00 0.00 81 1096.4
20260506125535 64 163 0.9 7.0 0.00 0.00 0.00 81 1096.4
20260506124536 64 210 4.3 9.6 0.00 0.00 0.00 80 1096.4
20260506123535 64 194 2.6 7.0 0.00 0.00 0.00 80 1096.4
20260506122126 65 203 7.8 17.4 0.00 0.00 0.00 79 1096.4
20260506121126 65 206 6.1 13.9 0.00 0.00 0.00 79 1096.4
20260506120126 64 189 2.6 10.4 0.00 0.00 0.00 79 1096.4
20260506115127 65 209 1.7 7.0 0.00 0.00 0.00 80 844.6
20260506113721 64 199 2.6 20.9 0.00 0.00 0.00 80 844.6
20260506112722 64 183 0.9 10.4 0.00 0.00 0.00 80 844.6
20260506111721 64 0 0.0 9.6 0.00 0.00 0.00 80 844.6
20260506110721 64 204 3.5 6.1 0.00 0.00 0.00 81 844.6
20260506105317 64 0 0.0 12.2 0.00 0.00 0.00 80 844.6
20260506104316 64 0 0.0 7.8 0.00 0.00 0.00 80 844.6
20260506103317 64 161 2.6 7.0 0.00 0.00 0.00 80 844.6
20260506102316 63 177 1.7 9.6 0.00 0.00 0.00 80 844.6
20260506095910 63 0 0.0 7.0 0.00 0.00 0.00 80 844.6
20260506094909 64 0 0.0 6.1 0.00 0.00 0.00 80 844.6
20260506093910 64 199 0.9 8.7 0.00 0.00 0.00 80 844.6
20260506092516 64 0 0.0 5.2 0.00 0.00 0.00 79 844.6
20260506091517 64 0 0.0 5.2 0.00 0.00 0.00 78 844.6
20260506090517 65 0 0.0 4.3 0.00 0.00 0.00 78 844.6
20260506085516 65 0 0.0 9.6 0.00 0.00 0.00 77 844.6
20260506084112 66 226 0.9 8.7 0.00 0.00 0.00 76 844.6
20260506083111 66 208 0.9 5.2 0.00 0.00 0.00 76 844.6
20260506082112 66 200 2.6 17.4 0.00 0.00 0.00 76 844.6
20260506081112 66 0 0.0 7.0 0.00 0.00 0.00 77 844.6
20260506072709 66 0 0.0 7.0 0.00 0.00 0.00 77 844.6
20260506071302 66 0 0.0 9.6 0.00 0.00 0.00 76 844.6
20260506070302 66 0 0.0 3.5 0.00 0.00 0.00 76 844.6
20260506061909 66 0 0.0 1.7 0.00 0.00 0.00 74 844.6
20260506060909 66 0 0.0 3.5 0.00 0.00 0.00 73 844.6
20260506045101 67 0 0.0 1.7 0.00 0.00 0.00 68 844.6
20260506044101 67 0 0.0 0.9 0.00 0.00 0.00 67 844.6
20260506043101 67 0 0.0 0.0 0.00 0.00 0.00 67 844.6
20260506041655 67 0 0.0 1.7 0.00 0.00 0.00 67 844.6
20260506040654 67 0 0.0 0.9 0.00 0.00 0.00 67 844.6
20260506035654 67 0 0.0 1.7 0.00 0.00 0.00 67 844.6
20260506034654 67 0 0.0 1.7 0.00 0.00 0.00 66 844.6
20260506033301 67 0 0.0 0.9 0.00 0.00 0.00 66 844.6
20260506032301 67 0 0.0 0.9 0.00 0.00 0.00 66 844.6
20260506031302 67 0 0.0 0.9 0.00 0.00 0.00 66 844.6
20260506030301 67 0 0.0 3.5 0.00 0.00 0.00 66 844.6
20260506024856 68 0 0.0 0.9 0.00 0.00 0.00 65 844.6
20260506023856 68 0 0.0 0.9 0.00 0.00 0.00 64 844.6
20260506022856 68 0 0.0 0.9 0.00 0.00 0.00 64 844.6
20260506021857 69 0 0.0 1.7 0.00 0.00 0.00 63 844.6
20260506020451 69 0 0.0 1.7 0.00 0.00 0.00 62 844.6
20260506015452 69 0 0.0 0.9 0.00 0.00 0.00 61 844.6
20260506014451 70 0 0.0 0.9 0.00 0.00 0.00 61 844.6
20260506013451 70 0 0.0 0.9 0.00 0.00 0.00 60 844.6
20260506012047 71 0 0.0 1.7 0.00 0.00 0.00 58 678.1
20260506011046 71 0 0.0 0.9 0.00 0.00 0.00 58 678.1
20260506010047 71 0 0.0 0.0 0.00 0.00 0.00 57 678.1
20260506005046 72 0 0.0 0.9 0.00 0.00 0.00 56 678.1
20260506003640 73 0 0.0 3.5 0.00 0.00 0.00 55 678.1
20260506002640 73 0 0.0 7.0 0.00 0.00 0.00 54 678.1
20260506001639 74 0 0.0 1.7 0.00 0.00 0.00 53 678.1
20260506000640 74 0 0.0 0.9 0.00 0.00 0.00 51 678.1
20260505235231 75 0 0.0 0.9 0.00 0.00 0.00 49 829.0
20260505234231 75 0 0.0 0.9 0.00 0.00 0.00 50 829.0
20260505233231 76 0 0.0 1.7 0.00 0.00 0.00 49 829.0
20260505232230 76 0 0.0 0.9 0.00 0.00 0.00 47 829.0